Location: Bronnegerveen
(52.9548°N, 6.8388°E)
Time: 01:41:30
(UTC+00:00)

SL-4 R/B - Pass Details

Date: 15 June 2025
Orbit: 394 x 546 km, 51.6° (Epoch: 07 July)

Event Time Altitude Azimuth Distance (km) Brightness Sun altitude
Rises 01:36:05 0° 274° (W) 2,669 5.3 -9.2°
Reaches altitude 10° 01:38:22 10° 272° (W) 1,759 4.3 -9.0°
Maximum altitude 01:42:20 68° 190° (S) 548 1.8 -8.7°
Drops below altitude 10° 01:46:06 10° 107° (ESE) 1,671 4.7 -8.4°
Sets 01:48:13 0° 105° (ESE) 2,522 5.6 -8.3°
